Location: Arborea
(39.7744°N, 8.5819°E)
Time: 04:14:01
(UTC+00:00)

Cosmos 332 Rocket - Pass Details

Date: 24 October 2021
Orbit: 682 x 703 km, 74.0° (Epoch: 29 November)

Event Time Altitude Azimuth Distance (km) Brightness Sun altitude
Rises 17:37:21 0° 196° (SSW) 3,072 7.4 -12.9°
Reaches altitude 10° 17:39:39 10° 196° (SSW) 2,157 6.6 -13.3°
Maximum altitude 17:44:32 87° 109° (ESE) 705 3.8 -14.3°
Drops below altitude 10° 17:49:25 10° 20° (NNE) 2,162 6.1 -15.2°
Sets 17:51:44 0° 20° (NNE) 3,080 6.9 -15.7°
